This is the latest recevied weather packets stored in our database for station/object K1KOF. If no packets are shown the sender has not sent any weather packets the latest 10 day(s).
| Time | Temp. | Humidity | Pressure | Rain* | Wind** | Luminosity | Snow |
|---|---|---|---|---|---|---|---|
| 1778274895 | 21.67° C | 58% | 1024.7 hPa | 0 mm | - | 155 W/m² | - |
| 1778274592 | 21.67° C | 53% | 1024.9 hPa | 0 mm | - | 146 W/m² | - |
| 1778274289 | 21.67° C | 53% | 1024.4 hPa | 0 mm | - | 164 W/m² | - |
| 1778273985 | 21.67° C | 53% | 1024.5 hPa | 0 mm | - | 177 W/m² | - |
| 1778273683 | 21.67° C | 50% | 1024.6 hPa | 0 mm | - | 207 W/m² | - |
| 1778273379 | 22.22° C | 52% | 1024.4 hPa | 0 mm | - | 248 W/m² | - |
| 1778273077 | 22.22° C | 53% | 1024.4 hPa | 0 mm | - | 261 W/m² | - |
| 1778272771 | 22.22° C | 50% | 1024.6 hPa | 0 mm | - | 252 W/m² | - |
| 1778272468 | 22.22° C | 54% | 1024.7 hPa | 0 mm | - | 296 W/m² | - |
| 1778272164 | 22.22° C | 51% | 1024.6 hPa | 0 mm | - | 278 W/m² | - |
| 1778271861 | 22.22° C | 52% | 1024.9 hPa | 0 mm | - | 268 W/m² | - |
| 1778271558 | 22.22° C | 52% | 1025 hPa | 0 mm | - | 281 W/m² | - |
| 1778271255 | 22.22° C | 48% | 1025.1 hPa | 0 mm | - | 309 W/m² | - |
| 1778270952 | 22.22° C | 52% | 1025.4 hPa | 0 mm | - | 340 W/m² | - |
| 1778270649 | 22.22° C | 47% | 1025.4 hPa | 0 mm | - | 365 W/m² | - |
| 1778270344 | 22.22° C | 47% | 1025.2 hPa | 0 mm | - | 324 W/m² | - |
| 1778270041 | 22.22° C | 50% | 1025 hPa | 0 mm | - | 306 W/m² | - |
| 1778269737 | 22.78° C | 49% | 1025.3 hPa | 0 mm | - | 308 W/m² | - |
| 1778269434 | 22.78° C | 47% | 1025.5 hPa | 0 mm | - | 363 W/m² | - |
| 1778269131 | 22.78° C | 47% | 1025.3 hPa | 0 mm | - | 362 W/m² | - |
| 1778268828 | 22.78° C | 49% | 1025.1 hPa | 0 mm | - | 422 W/m² | - |
| 1778268524 | 22.78° C | 52% | 1025.4 hPa | 0 mm | - | 406 W/m² | - |
| 1778268221 | 22.22° C | 51% | 1025.5 hPa | 0 mm | - | 412 W/m² | - |
| 1778267918 | 21.67° C | 53% | 1025.8 hPa | 0 mm | - | 443 W/m² | - |
| 1778267616 | 22.22° C | 53% | 1025.7 hPa | 0 mm | - | 412 W/m² | - |
* Rain latest hour (hover to see other rain measurements)
** Current wind speed in m/s (hover to see current wind gust speed)